Hartford, CT

1:25 PM EST on November 22, 2019 (GMT -0500)
Hartford-brainard

Weather History for KHFD - October, 2019

Change the Weather History Date:

Friday, October 18, 2019

  Actual Average Record
Temperature  
Mean Temperature 54 °F -  
Max Temperature 59 °F 60 °F 82 °F (2016)
Min Temperature 48 °F 40 °F 24 °F (1978)
Degree Days  
Heating Degree Days 12    
Growing Degree Days 4 (Base 50)    
Moisture  
Dew Point 38 °F    
Average Humidity 58    
Maximum Humidity 66    
Minimum Humidity 48    
Precipitation  
Precipitation 0.00 in - - ()
Sea Level Pressure  
Sea Level Pressure 29.79 in    
Wind  
Wind Speed 10 mph ()    
Max Wind Speed 16 mph    
Max Gust Speed 28 mph    
Visibility 10.0 miles    
Events      
Averages and records for this station are not official NWS values.
T = Trace of Precipitation, MM = Missing Value Source: Averaged Metar Reports

Daily Weather History Graph

Daily Weather History Graph

Search for Another Location

Airport or City:

Astronomy

Oct. 18, 2019 Rise Set
Actual Time 7:05 AM EDT 6:04 PM EDT
Civil Twilight 6:37 AM EDT 6:33 PM EDT
Nautical Twilight 6:05 AM EDT 7:05 PM EDT
Astronomical Twilight 5:33 AM EDT 7:37 PM EDT
Moon 9:15 PM EDT (10/18) 11:39 AM EDT (10/18)
Length of Visible Light 11h 55m
Length of Day
10h 59m
Waning Gibbous, 79% of the Moon is Illuminated
Oct 18
Waning Gibbous
Oct 21
Last Quarter
Oct 27
New
Nov 4
First Quarter
Nov 12
Full

Hourly Weather History & Observations

Time (EDT) Temp. Dew Point Humidity Pressure Visibility Wind Dir Wind Speed Gust Speed Precip Events Conditions
12:53 AM 53.1 °F 39.0 °F 59% 29.54 in 10.0 mi WNW 10.4 mph - N/A   Mostly Cloudy
2:53 AM 53.1 °F 39.9 °F 61% 29.58 in 10.0 mi WNW 10.4 mph 18.4 mph N/A   Overcast
3:53 AM 52.0 °F 39.0 °F 61% 29.60 in 10.0 mi NW 12.7 mph 19.6 mph N/A   Scattered Clouds
4:53 AM 52.0 °F 39.0 °F 61% 29.62 in 10.0 mi NW 6.9 mph 18.4 mph N/A   Overcast
5:53 AM 51.1 °F 37.9 °F 61% 29.65 in 10.0 mi WNW 11.5 mph - N/A   Overcast
6:53 AM 51.1 °F 37.9 °F 61% 29.68 in 10.0 mi NW 10.4 mph 17.3 mph N/A   Overcast
7:53 AM 51.1 °F 37.9 °F 61% 29.72 in 10.0 mi NW 9.2 mph - N/A   Overcast
8:53 AM 51.1 °F 37.9 °F 61% 29.75 in 10.0 mi NW 16.1 mph 21.9 mph N/A   Overcast
9:53 AM 53.1 °F 37.9 °F 57% 29.77 in 10.0 mi NW 11.5 mph 23.0 mph N/A   Mostly Cloudy
10:53 AM 55.0 °F 37.9 °F 53% 29.78 in 10.0 mi NW 16.1 mph - N/A   Mostly Cloudy
11:53 AM 55.9 °F 39.0 °F 53% 29.78 in 10.0 mi NW 16.1 mph 27.6 mph N/A   Scattered Clouds
12:53 PM 57.9 °F 39.9 °F 51% 29.77 in 10.0 mi NW 11.5 mph - N/A   Partly Cloudy
1:53 PM 59.0 °F 39.0 °F 48% 29.78 in 10.0 mi NW 13.8 mph 24.2 mph N/A   Mostly Cloudy
2:53 PM 55.0 °F 37.9 °F 53% 29.82 in 10.0 mi NW 16.1 mph 25.3 mph N/A   Overcast
3:53 PM 53.1 °F 37.0 °F 55% 29.85 in 10.0 mi NW 16.1 mph 23.0 mph N/A   Scattered Clouds
4:53 PM 53.1 °F 37.9 °F 57% 29.86 in 10.0 mi WNW 11.5 mph 17.3 mph N/A   Overcast
5:53 PM 52.0 °F 36.0 °F 54% 29.88 in 10.0 mi NW 15.0 mph 24.2 mph N/A   Overcast
6:53 PM 51.1 °F 37.0 °F 59% 29.89 in 10.0 mi NW 9.2 mph - N/A   Overcast
7:53 PM 48.9 °F 37.0 °F 64% 29.92 in 10.0 mi NW 6.9 mph - N/A   Scattered Clouds
8:53 PM 48.9 °F 37.0 °F 64% 29.94 in 10.0 mi NW 5.8 mph - N/A   Overcast
9:53 PM 48.0 °F 37.0 °F 66% 29.96 in 10.0 mi NNW 8.1 mph - N/A   Overcast
10:53 PM 48.9 °F 36.0 °F 61% 29.98 in 10.0 mi NW 10.4 mph 18.4 mph N/A   Overcast
11:53 PM 48.0 °F 35.1 °F 61% 29.98 in 10.0 mi NW 12.7 mph - N/A   Overcast